Location: Maddington
(51.2000°N, 1.9167°W)
Time: 15:20:53
(UTC+00:00)

NOSS 2-2 (E) - Pass Details

Date: 20 January 2021
Orbit: 462 x 1744 km, 63.3° (Epoch: 03 March)

Event Time Altitude Azimuth Distance (km) Brightness Sun altitude
Rises 18:16:51 0° 305° (NW) 2,743 7.5 -15.1°
Reaches altitude 10° 18:19:20 10° 323° (NW) 1,981 6.5 -15.5°
Maximum altitude 18:22:44 21° 13° (NNE) 1,587 5.4 -16.0°
Enters shadow 18:24:21 18° 38° (NE) 1,806 5.5 -16.3°
